OPS 4682 DEB, 38375

Orbit data source: Space-Track

OPS 4682 DEB, 38375 is space debris in LEO originally from a launch on Sat, 03 Apr 1965 UTC launched from the Air Force Western Test Range (AFWTR). Debris objects in space refer to the collection of defunct objects orbiting the Earth. Examples of debris include non-operational satellites, rocket bodies, and fragments generated from explosions, collisions, or faulty payload assembly.

Loading next visibility...
Identifier
38375, 1965-027CC
Orbit
LEO
Country
Flag of USUS
Related business
Manufacturer
Unknown
Mission
Spacecraft
Bus & Motor
Unknown
Mass
Unknown
Launch date (UTC)
1965-04-03 (61 years ago)
Launch vehicle
Unknown
Launch site
Air Force Western Test Range (AFWTR)
Object type
Payload
Rocket body
Debris
Shape & HBR
Unknown shape, 0.1 m
Radar Cross Section
Small (<0.1 m²)

Expand to show TLE details & history
Last TLE update: 1 day ago

TLE from 1 day ago
0 OPS 4682 DEB
1 38375U 65027CC  26207.20088320  .00000368  00000-0  12847-2 0  9997
2 38375  90.2403   7.8974 0033465 105.3031 255.1791 12.94919884621177
Epoch: 2026-07-26T04:49Z
TLE epoch observation values (Epoch: 2026-07-26T04:49:16.308Z)
Latitude
-0.00002°
Longitude
-8.32277°
Altitude
1,291.571 km
Speed
7.207 km/s
True Right ascension
00h 31m 35s
True Declination
0° 00' 00"
Sunlit
Object was in daylight at epoch
Visualization orbit readout
Latitude
Unknown
Longitude
Unknown
Altitude
Unknown
Speed
Unknown
Apparent Right ascension
Unknown
Apparent Declination
Unknown
Sunlit
N/A
Visualization observer readout
Local Sidereal Time
20:28:53
Azimuth
Unknown
Elevation
Unknown
Doppler factor
Unknown
Orbital elements
Apogee altitude
1,304.816 km
Perigee altitude
1,253.565 km
Semi-major axis
7,657.327 km
Eccentricity
0.00335
Inclination
90.2403°
RAAN
7.8974°
Arg. of periapsis
105.3031°
True anomaly
254.80878°
Mean anomaly
255.1791°
Eccentric anomaly
254.9939°
Mean motion
3.23912 °/min
Orbital period
111.14 mins
BSTAR
0.0012847
Loading maneuver chart data...
Computing Atmospheric mass density...
Loading historical data...
Loading historical data...
Loading historical data...
Loading historical data...
Loading historical data...
Loading historical data...
Loading historical data...

Documentation

Showing up to 5 results
|